Weather History for Norman, OK

Change the Weather History Date:

Sunday, February 17, 2013

  Actual Average Record
Temperature  
Mean Temperature 51 °F -  
Max Temperature 69 °F 54 °F 80 °F (2011)
Min Temperature 33 °F 29 °F 18 °F (1958)
Degree Days  
Heating Degree Days 14    
Growing Degree Days 1 (Base 50)    
Moisture  
Dew Point 33 °F    
Average Humidity 55    
Maximum Humidity 87    
Minimum Humidity 28    
Precipitation  
Precipitation 0.00 in - - ()
Sea Level Pressure  
Sea Level Pressure 29.91 in    
Wind  
Wind Speed 11 mph (South)    
Max Wind Speed 26 mph    
Max Gust Speed 33 mph    
Visibility 10 miles    
Events      
Averages and records for this station are not official NWS values.
T = Trace of Precipitation, MM = Missing Value Source: NWS Daily Summary

Daily Weather History Graph

Daily Weather History Graph

Search for Another Location

Airport:

Trip Planner

Search our weather history database for the weather conditions in past years. The results will help you decide how hot, cold, wet, or windy it might be!

Date:

Astronomy

Feb. 17, 2013 Rise Set
Actual Time 7:13 AM CST 6:14 PM CST
Civil Twilight 6:47 AM CST 6:40 PM CST
Nautical Twilight 6:18 AM CST 7:10 PM CST
Astronomical Twilight 5:48 AM CST 7:39 PM CST
Moon 11:24 AM CST (2/17) 12:54 AM CST (2/17)
Length of Visible Light 11h 52m
Length of Day
11h 00m
Waxing Crescent, 49% of the Moon is Illuminated
Feb 17
Waxing Crescent
Feb 17
First Quarter
Feb 25
Full
Mar 4
Last Quarter
Mar 11
New

Hourly Weather History & Observations

Time (CST) Temp. Windchill Dew Point Humidity Pressure Visibility Wind Dir Wind Speed Gust Speed Precip Events Conditions
12:15 AM 37.4 °F 30.3 °F 32.0 °F 81% 30.08 in 10.0 mi South 10.4 mph - N/A   Clear
12:35 AM 37.4 °F 30.3 °F 32.0 °F 81% 30.07 in 10.0 mi South 10.4 mph - N/A   Clear
12:55 AM 37.4 °F 30.8 °F 30.2 °F 75% 30.07 in 10.0 mi South 9.2 mph - N/A   Clear
1:15 AM 35.6 °F 28.6 °F 30.2 °F 81% 30.07 in 10.0 mi South 9.2 mph - N/A   Clear
1:35 AM 35.6 °F 29.2 °F 30.2 °F 81% 30.07 in 10.0 mi South 8.1 mph - N/A   Clear
1:55 AM 35.6 °F - 30.2 °F 81% 30.06 in 10.0 mi Calm Calm - N/A   Clear
2:15 AM 35.6 °F - 30.2 °F 81% 30.05 in 10.0 mi Calm Calm - N/A   Clear
2:35 AM 35.6 °F - 30.2 °F 81% 30.04 in 10.0 mi Calm Calm - N/A   Clear
2:55 AM 35.6 °F 29.9 °F 30.2 °F 81% 30.04 in 10.0 mi South 6.9 mph - N/A   Clear
3:15 AM 35.6 °F 29.9 °F 30.2 °F 81% 30.03 in 10.0 mi South 6.9 mph - N/A   Clear
3:35 AM 35.6 °F 29.2 °F 30.2 °F 81% 30.03 in 10.0 mi South 8.1 mph - N/A   Clear
3:55 AM 35.6 °F - 30.2 °F 81% 30.02 in 10.0 mi Calm Calm - N/A   Clear
4:15 AM 33.8 °F - 30.2 °F 87% 30.02 in 10.0 mi Calm Calm - N/A   Clear
4:35 AM 33.8 °F - 30.2 °F 87% 30.02 in 10.0 mi Calm Calm - N/A   Clear
4:55 AM 33.8 °F - 30.2 °F 87% 30.02 in 10.0 mi Calm Calm - N/A   Clear
5:15 AM 33.8 °F - 30.2 °F 87% 30.02 in 10.0 mi Calm Calm - N/A   Clear
5:35 AM 33.8 °F 28.6 °F 30.2 °F 87% 30.01 in 10.0 mi South 5.8 mph - N/A   Clear
6:15 AM 33.8 °F 27.7 °F 30.2 °F 87% 30.01 in 10.0 mi South 6.9 mph - N/A   Clear
6:35 AM 33.8 °F 28.6 °F 30.2 °F 87% 30.01 in 10.0 mi South 5.8 mph - N/A   Clear
6:55 AM 33.8 °F 27.7 °F 30.2 °F 87% 30.00 in 10.0 mi SSE 6.9 mph - N/A   Clear
7:15 AM 33.8 °F - 30.2 °F 87% 30.00 in 10.0 mi Calm Calm - N/A   Clear
7:35 AM 33.8 °F - 30.2 °F 87% 30.00 in 10.0 mi Calm Calm - N/A   Clear
7:55 AM 35.6 °F - 32.0 °F 87% 30.00 in 10.0 mi Calm Calm - N/A   Clear
8:15 AM 37.4 °F - 32.0 °F 81% 30.00 in 10.0 mi Calm Calm - N/A   Clear
8:35 AM 41.0 °F - 32.0 °F 70% 30.00 in 10.0 mi Calm Calm - N/A   Clear
8:55 AM 42.8 °F 37.5 °F 32.0 °F 66% 30.01 in 10.0 mi South 9.2 mph - N/A   Clear
9:15 AM 44.6 °F 39.2 °F 33.8 °F 66% 30.01 in 10.0 mi South 10.4 mph - N/A   Clear
9:35 AM 48.2 °F - 33.8 °F 58% 30.00 in 10.0 mi South 11.5 mph - N/A   Clear
9:55 AM 51.8 °F - 32.0 °F 47% 30.00 in 10.0 mi SSW 13.8 mph - N/A   Clear
10:35 AM 55.4 °F - 33.8 °F 44% 29.99 in 10.0 mi SSW 13.8 mph 17.3 mph N/A   Clear
10:55 AM 57.2 °F - 33.8 °F 41% 29.98 in 10.0 mi South 15.0 mph - N/A   Clear
11:35 AM 60.8 °F - 33.8 °F 36% 29.96 in 10.0 mi South 13.8 mph - N/A   Clear
11:55 AM 62.6 °F - 35.6 °F 37% 29.95 in 10.0 mi South 16.1 mph - N/A   Clear
12:15 PM 62.6 °F - 35.6 °F 37% 29.94 in 10.0 mi South 18.4 mph - N/A   Clear
12:55 PM 64.4 °F - 35.6 °F 34% 29.91 in 10.0 mi South 17.3 mph 23.0 mph N/A   Clear
1:15 PM 64.4 °F - 35.6 °F 34% 29.90 in 10.0 mi South 15.0 mph 24.2 mph N/A   Clear
1:35 PM 66.2 °F - 35.6 °F 32% 29.89 in 10.0 mi South 23.0 mph - N/A   Clear
1:55 PM 68.0 °F - 35.6 °F 30% 29.87 in 10.0 mi SSW 19.6 mph 27.6 mph N/A   Clear
2:15 PM 68.0 °F - 37.4 °F 33% 29.86 in 10.0 mi South 21.9 mph 27.6 mph N/A   Clear
2:35 PM 68.0 °F - 35.6 °F 30% 29.84 in 10.0 mi South 19.6 mph 31.1 mph N/A   Clear
2:55 PM 69.8 °F - 35.6 °F 28% 29.83 in 10.0 mi South 21.9 mph 28.8 mph N/A   Clear
3:15 PM 69.8 °F - 35.6 °F 28% 29.82 in 10.0 mi South 24.2 mph 27.6 mph N/A   Clear
3:35 PM 69.8 °F - 35.6 °F 28% 29.82 in 10.0 mi South 26.5 mph 32.2 mph N/A   Clear
3:55 PM 69.8 °F - 37.4 °F 31% 29.81 in 10.0 mi South 20.7 mph 27.6 mph N/A   Clear
4:15 PM 69.8 °F - 35.6 °F 28% 29.80 in 10.0 mi South 19.6 mph 26.5 mph N/A   Clear
4:35 PM 69.8 °F - 35.6 °F 28% 29.79 in 10.0 mi South 25.3 mph 32.2 mph N/A   Clear
4:55 PM 69.8 °F - 35.6 °F 28% 29.79 in 10.0 mi South 24.2 mph 33.4 mph N/A   Clear
5:15 PM 68.0 °F - 35.6 °F 30% 29.78 in 10.0 mi South 23.0 mph 26.5 mph N/A   Clear
5:35 PM 68.0 °F - 33.8 °F 28% 29.78 in 10.0 mi South 19.6 mph 28.8 mph N/A   Clear
5:55 PM 64.4 °F - 33.8 °F 32% 29.78 in 10.0 mi South 17.3 mph 21.9 mph N/A   Clear
6:15 PM 64.4 °F - 32.0 °F 30% 29.78 in 10.0 mi South 16.1 mph 24.2 mph N/A   Clear
6:35 PM 62.6 °F - 32.0 °F 32% 29.78 in 10.0 mi South 15.0 mph - N/A   Clear
6:55 PM 62.6 °F - 32.0 °F 32% 29.78 in 10.0 mi SSE 17.3 mph 23.0 mph N/A   Clear
7:15 PM 60.8 °F - 32.0 °F 34% 29.78 in 10.0 mi SSE 15.0 mph - N/A   Clear
7:35 PM 60.8 °F - 33.8 °F 36% 29.78 in 10.0 mi SSE 19.6 mph 23.0 mph N/A   Clear
7:55 PM 59.0 °F - 33.8 °F 39% 29.78 in 10.0 mi SSE 19.6 mph 25.3 mph N/A   Clear
8:15 PM 59.0 °F - 33.8 °F 39% 29.78 in 10.0 mi SSE 19.6 mph 29.9 mph N/A   Clear
8:35 PM 59.0 °F - 33.8 °F 39% 29.78 in 10.0 mi SSE 18.4 mph 27.6 mph N/A   Clear
8:55 PM 57.2 °F - 33.8 °F 41% 29.77 in 10.0 mi SSE 21.9 mph 29.9 mph N/A   Clear
9:15 PM 57.2 °F - 33.8 °F 41% 29.77 in 10.0 mi SSE 20.7 mph 31.1 mph N/A   Clear
9:35 PM 55.4 °F - 35.6 °F 47% 29.77 in 10.0 mi SSE 19.6 mph 32.2 mph N/A   Clear
9:55 PM 55.4 °F - 35.6 °F 47% 29.77 in 10.0 mi SSE 23.0 mph 32.2 mph N/A   Clear
10:15 PM 55.4 °F - 35.6 °F 47% 29.76 in 10.0 mi South 20.7 mph 31.1 mph N/A   Clear
10:35 PM 55.4 °F - 35.6 °F 47% 29.76 in 10.0 mi South 21.9 mph 32.2 mph N/A   Clear
10:55 PM 55.4 °F - 35.6 °F 47% 29.76 in 10.0 mi South 20.7 mph 31.1 mph N/A   Clear
11:15 PM 55.4 °F - 35.6 °F 47% 29.76 in 10.0 mi South 21.9 mph 29.9 mph N/A   Clear
11:35 PM 55.4 °F - 35.6 °F 47% 29.76 in 10.0 mi South 24.2 mph 31.1 mph N/A   Clear
11:55 PM 55.4 °F - 37.4 °F 51% 29.76 in 10.0 mi South 24.2 mph 32.2 mph N/A   Clear